• în România
  • Lista ţărilor
  • Pe 7 zile
  • Temperatura apei
  • Hartă satelitară
  • Meteo pe hartă
  • Widget-uri
  • user-avatar
    Intrare

    Meteo pe oră la Imbramowice

    Astăzi, 22 Octombrie, Luni

    Timp Temperatura Precipitaţii Vânt Presiune Umiditate
    00:00 +7°C° 0 mm 1 m/s 754 mmHg 85%
    01:00 +7°C° 0 mm 1 m/s 754 mmHg 85%
    02:00 +6°C° 0 mm 1 m/s 754 mmHg 86%
    03:00 +6°C° 0 mm 1 m/s 753 mmHg 86%
    04:00 +6°C° 0 mm 1 m/s 753 mmHg 86%
    05:00 +6°C° 0 mm 1 m/s 753 mmHg 86%
    06:00 +6°C° 0 mm 1 m/s 753 mmHg 86%
    07:00 +6°C° 0 mm 1 m/s 753 mmHg 85%
    08:00 +8°C° 0 mm 1 m/s 753 mmHg 77%
    09:00 +10°C° 0 mm 1 m/s 753 mmHg 69%
    10:00 +12°C° 0 mm 2 m/s 753 mmHg 61%
    11:00 +13°C° 0 mm 2 m/s 753 mmHg 57%
    12:00 +13°C° 0 mm 3 m/s 752 mmHg 53%
    13:00 +14°C° 0 mm 3 m/s 752 mmHg 49%
    14:00 +13°C° 0 mm 3 m/s 752 mmHg 54%
    15:00 +12°C° 0 mm 3 m/s 752 mmHg 59%
    16:00 +12°C° 0 mm 3 m/s 752 mmHg 63%
    17:00 +11°C° 0.4 mm 3 m/s 752 mmHg 71%
    18:00 +10°C° 0.4 mm 4 m/s 752 mmHg 78%
    19:00 +10°C° 0.4 mm 4 m/s 753 mmHg 86%
    20:00 +8°C° 0.1 mm 4 m/s 753 mmHg 85%
    21:00 +7°C° 0.1 mm 4 m/s 753 mmHg 85%
    22:00 +6°C° 0.1 mm 4 m/s 753 mmHg 85%
    23:00 +7°C° 0 mm 3 m/s 753 mmHg 85%

    Mâine, 23 Octombrie, Marţi

    Timp Temperatura Precipitaţii Vânt Presiune Umiditate
    00:00 +5°C° 0 mm 3 m/s 753 mmHg 85%
    01:00 +4°C° 0 mm 3 m/s 753 mmHg 86%
    02:00 +4°C° 0 mm 3 m/s 753 mmHg 85%
    03:00 +4°C° 0 mm 3 m/s 753 mmHg 85%
    04:00 +4°C° 0 mm 3 m/s 753 mmHg 84%
    05:00 +4°C° 0 mm 3 m/s 752 mmHg 83%
    06:00 +4°C° 0 mm 4 m/s 752 mmHg 83%
    07:00 +4°C° 0 mm 4 m/s 751 mmHg 82%
    08:00 +5°C° 0.1 mm 5 m/s 750 mmHg 78%
    09:00 +5°C° 0.1 mm 6 m/s 750 mmHg 73%
    10:00 +6°C° 0.1 mm 7 m/s 749 mmHg 69%
    11:00 +6°C° 0.5 mm 8 m/s 748 mmHg 70%
    12:00 +6°C° 0.5 mm 8 m/s 747 mmHg 71%
    13:00 +6°C° 0.5 mm 9 m/s 745 mmHg 72%
    14:00 +6°C° 0.7 mm 10 m/s 744 mmHg 73%
    15:00 +7°C° 0.7 mm 10 m/s 744 mmHg 75%
    16:00 +7°C° 0.7 mm 10 m/s 743 mmHg 76%
    17:00 +7°C° 0.2 mm 10 m/s 742 mmHg 77%
    18:00 +8°C° 0.2 mm 10 m/s 741 mmHg 78%
    19:00 +8°C° 0.2 mm 11 m/s 741 mmHg 79%
    20:00 +9°C° 0.4 mm 10 m/s 740 mmHg 80%
    21:00 +9°C° 0.4 mm 10 m/s 740 mmHg 80%
    22:00 +9°C° 0.4 mm 10 m/s 739 mmHg 81%
    23:00 +11°C° 0.5 mm 11 m/s 739 mmHg 81%

    Poimâine, 24 Octombrie, Miercuri

    Timp Temperatura Precipitaţii Vânt Presiune Umiditate
    00:00 +11°C° 0.5 mm 11 m/s 738 mmHg 80%
    01:00 +10°C° 0.5 mm 12 m/s 737 mmHg 80%
    02:00 +10°C° 0.9 mm 12 m/s 737 mmHg 80%
    03:00 +10°C° 0.9 mm 12 m/s 737 mmHg 79%
    04:00 +10°C° 0.9 mm 12 m/s 737 mmHg 79%
    05:00 +8°C° 0.8 mm 11 m/s 738 mmHg 75%
    06:00 +7°C° 0.8 mm 10 m/s 738 mmHg 71%
    07:00 +5°C° 0.8 mm 9 m/s 739 mmHg 67%
    08:00 +6°C° 0 mm 9 m/s 739 mmHg 64%
    09:00 +6°C° 0 mm 9 m/s 740 mmHg 61%
    10:00 +6°C° 0 mm 10 m/s 741 mmHg 58%
    11:00 +6°C° 0.1 mm 10 m/s 741 mmHg 57%
    12:00 +6°C° 0.1 mm 9 m/s 741 mmHg 56%
    13:00 +7°C° 0.1 mm 9 m/s 742 mmHg 55%
    14:00 +6°C° 0 mm 9 m/s 742 mmHg 55%
    15:00 +6°C° 0 mm 8 m/s 743 mmHg 54%
    16:00 +6°C° 0 mm 7 m/s 743 mmHg 53%
    17:00 +5°C° 0 mm 7 m/s 744 mmHg 56%
    18:00 +5°C° 0 mm 6 m/s 745 mmHg 59%
    19:00 +4°C° 0 mm 6 m/s 746 mmHg 61%
    20:00 +5°C° 0 mm 5 m/s 746 mmHg 63%
    21:00 +3°C° 0 mm 5 m/s 747 mmHg 64%
    22:00 +3°C° 0 mm 5 m/s 747 mmHg 65%
    23:00 +3°C° 0 mm 5 m/s 747 mmHg 68%

    25 Octombrie, Joi

    Timp Temperatura Precipitaţii Vânt Presiune Umiditate
    00:00 +2°C° 0 mm 5 m/s 748 mmHg 70%
    01:00 +2°C° 0 mm 5 m/s 748 mmHg 72%
    02:00 +3°C° 0 mm 4 m/s 748 mmHg 75%
    03:00 +3°C° 0 mm 4 m/s 748 mmHg 79%
    04:00 +1°C° 0 mm 4 m/s 748 mmHg 82%
    05:00 +3°C° 0 mm 4 m/s 748 mmHg 84%
    06:00 +3°C° 0 mm 4 m/s 748 mmHg 86%
    07:00 +3°C° 0 mm 4 m/s 748 mmHg 87%
    08:00 +4°C° 0 mm 4 m/s 747 mmHg 86%
    09:00 +5°C° 0 mm 5 m/s 747 mmHg 84%
    10:00 +7°C° 0 mm 5 m/s 747 mmHg 82%
    11:00 +8°C° 0.1 mm 5 m/s 747 mmHg 81%
    12:00 +9°C° 0.1 mm 6 m/s 746 mmHg 79%
    13:00 +10°C° 0.1 mm 6 m/s 746 mmHg 78%
    14:00 +10°C° 0.1 mm 6 m/s 745 mmHg 78%
    15:00 +10°C° 0.1 mm 6 m/s 745 mmHg 79%
    16:00 +10°C° 0.1 mm 5 m/s 745 mmHg 79%
    17:00 +9°C° 0.1 mm 5 m/s 745 mmHg 82%
    18:00 +10°C° 0.1 mm 4 m/s 745 mmHg 85%
    19:00 +8°C° 0.1 mm 4 m/s 745 mmHg 88%
    20:00 +8°C° 0 mm 4 m/s 744 mmHg 89%
    21:00 +8°C° 0 mm 4 m/s 744 mmHg 89%
    22:00 +8°C° 0 mm 4 m/s 744 mmHg 89%
    23:00 +8°C° 0 mm 3 m/s 744 mmHg 89%

    26 Octombrie, Vineri

    Timp Temperatura Precipitaţii Vânt Presiune Umiditate
    00:00 +8°C° 0 mm 3 m/s 744 mmHg 89%
    01:00 +8°C° 0 mm 3 m/s 744 mmHg 89%
    02:00 +8°C° 0 mm 3 m/s 743 mmHg 89%
    03:00 +8°C° 0 mm 3 m/s 743 mmHg 89%
    04:00 +8°C° 0 mm 3 m/s 743 mmHg 89%
    05:00 +8°C° 0 mm 3 m/s 743 mmHg 89%
    06:00 +8°C° 0 mm 3 m/s 742 mmHg 90%
    07:00 +8°C° 0 mm 3 m/s 742 mmHg 90%
    08:00 +9°C° 0 mm 3 m/s 742 mmHg 85%
    09:00 +10°C° 0 mm 4 m/s 742 mmHg 79%
    10:00 +11°C° 0 mm 4 m/s 742 mmHg 74%
    11:00 +12°C° 0 mm 4 m/s 741 mmHg 70%
    12:00 +13°C° 0 mm 4 m/s 741 mmHg 67%
    13:00 +14°C° 0 mm 4 m/s 740 mmHg 63%
    14:00 +13°C° 0 mm 4 m/s 739 mmHg 65%
    15:00 +13°C° 0 mm 3 m/s 739 mmHg 67%
    16:00 +12°C° 0 mm 3 m/s 739 mmHg 69%
    17:00 +12°C° 0 mm 3 m/s 739 mmHg 72%
    18:00 +11°C° 0 mm 3 m/s 739 mmHg 75%
    19:00 +10°C° 0 mm 3 m/s 739 mmHg 78%
    20:00 +10°C° 0 mm 3 m/s 739 mmHg 80%
    21:00 +9°C° 0 mm 3 m/s 738 mmHg 81%
    22:00 +9°C° 0 mm 3 m/s 738 mmHg 82%
    23:00 +9°C° 0 mm 2 m/s 738 mmHg 83%

    27 Octombrie, Sâmbătă

    Timp Temperatura Precipitaţii Vânt Presiune Umiditate
    00:00 +9°C° 0 mm 2 m/s 738 mmHg 83%
    01:00 +9°C° 0 mm 2 m/s 738 mmHg 84%
    02:00 +9°C° 0 mm 2 m/s 738 mmHg 85%
    03:00 +9°C° 0 mm 2 m/s 737 mmHg 87%
    04:00 +8°C° 0 mm 2 m/s 737 mmHg 88%
    05:00 +9°C° 0.1 mm 1 m/s 737 mmHg 89%
    06:00 +9°C° 0.1 mm 1 m/s 737 mmHg 89%
    07:00 +9°C° 0.1 mm 1 m/s 736 mmHg 90%
    08:00 +10°C° 0.4 mm 1 m/s 736 mmHg 88%
    09:00 +10°C° 0.4 mm 1 m/s 735 mmHg 86%
    10:00 +11°C° 0.4 mm 1 m/s 735 mmHg 85%
    11:00 +10°C° 0.7 mm 2 m/s 735 mmHg 85%
    12:00 +10°C° 0.7 mm 2 m/s 734 mmHg 85%
    13:00 +10°C° 0.7 mm 2 m/s 734 mmHg 86%
    14:00 +9°C° 0.7 mm 3 m/s 734 mmHg 87%
    15:00 +9°C° 0.7 mm 3 m/s 734 mmHg 88%
    16:00 +7°C° 0.7 mm 4 m/s 734 mmHg 89%
    17:00 +6°C° 1 mm 4 m/s 734 mmHg 88%
    18:00 +5°C° 1 mm 5 m/s 734 mmHg 87%
    19:00 +3°C° 1 mm 5 m/s 734 mmHg 86%
    20:00 +4°C° 0.9 mm 4 m/s 735 mmHg 86%
    21:00 +4°C° 0.9 mm 4 m/s 735 mmHg 85%
    22:00 +4°C° 0.9 mm 3 m/s 735 mmHg 85%
    23:00 +4°C° 0.4 mm 3 m/s 736 mmHg 85%
    Arată mai mult